• In Belarus
  • List of Countries
  • For 7 days
  • Water Temperature
  • Satellite Maps
  • Weather Map
  • Weather Widgets
  • user-avatar
    Login

    Hourly Weather Bolehov

    Today, 21 September, Friday

    Time Temperature Precipitation Wind Pressure Humidity
    00:00 +16°C° 0 mm 1 mps 731 mmHg 85%
    01:00 +16°C° 0 mm 1 mps 730 mmHg 86%
    02:00 +16°C° 0 mm 1 mps 730 mmHg 87%
    03:00 +15°C° 0 mm 1 mps 730 mmHg 87%
    04:00 +15°C° 0 mm 1 mps 730 mmHg 87%
    05:00 +15°C° 0 mm 1 mps 730 mmHg 87%
    06:00 +16°C° 0 mm 1 mps 730 mmHg 83%
    07:00 +18°C° 0 mm 1 mps 730 mmHg 79%
    08:00 +19°C° 0 mm 1 mps 730 mmHg 73%
    09:00 +21°C° 0 mm 1 mps 730 mmHg 65%
    10:00 +23°C° 0 mm 1 mps 730 mmHg 57%
    11:00 +25°C° 0 mm 1 mps 730 mmHg 49%
    12:00 +26°C° 0 mm 1 mps 730 mmHg 47%
    13:00 +26°C° 0 mm 2 mps 730 mmHg 44%
    14:00 +27°C° 0 mm 2 mps 729 mmHg 42%
    15:00 +26°C° 0 mm 2 mps 729 mmHg 47%
    16:00 +26°C° 0 mm 2 mps 729 mmHg 52%
    17:00 +25°C° 0 mm 2 mps 728 mmHg 57%
    18:00 +23°C° 0 mm 2 mps 728 mmHg 61%
    19:00 +20°C° 0 mm 2 mps 728 mmHg 66%
    20:00 +18°C° 0 mm 2 mps 728 mmHg 70%
    21:00 +17°C° 0 mm 2 mps 728 mmHg 70%
    22:00 +17°C° 0 mm 2 mps 728 mmHg 70%
    23:00 +17°C° 0 mm 2 mps 728 mmHg 70%

    Tomorrow, 22 September, Saturday

    Time Temperature Precipitation Wind Pressure Humidity
    00:00 +17°C° 0 mm 2 mps 728 mmHg 68%
    01:00 +17°C° 0 mm 2 mps 728 mmHg 67%
    02:00 +17°C° 0 mm 3 mps 727 mmHg 65%
    03:00 +17°C° 0 mm 3 mps 727 mmHg 63%
    04:00 +17°C° 0 mm 3 mps 727 mmHg 61%
    05:00 +17°C° 0 mm 3 mps 727 mmHg 59%
    06:00 +17°C° 0 mm 3 mps 728 mmHg 59%
    07:00 +18°C° 0 mm 3 mps 728 mmHg 60%
    08:00 +18°C° 0 mm 3 mps 729 mmHg 61%
    09:00 +18°C° 0 mm 3 mps 729 mmHg 65%
    10:00 +17°C° 0 mm 4 mps 729 mmHg 69%
    11:00 +17°C° 0 mm 4 mps 730 mmHg 74%
    12:00 +15°C° 0.2 mm 4 mps 730 mmHg 74%
    13:00 +15°C° 0.2 mm 4 mps 730 mmHg 74%
    14:00 +14°C° 0.2 mm 3 mps 730 mmHg 74%
    15:00 +13°C° 1.3 mm 3 mps 730 mmHg 80%
    16:00 +13°C° 1.3 mm 2 mps 730 mmHg 86%
    17:00 +10°C° 1.3 mm 2 mps 730 mmHg 92%
    18:00 +10°C° 0.7 mm 2 mps 730 mmHg 92%
    19:00 +11°C° 0.7 mm 1 mps 730 mmHg 93%
    20:00 +11°C° 0.7 mm 1 mps 731 mmHg 93%
    21:00 +10°C° 0 mm 1 mps 731 mmHg 92%
    22:00 +10°C° 0 mm 1 mps 731 mmHg 91%
    23:00 +9°C° 0 mm 1 mps 731 mmHg 90%

    Day after tomorrow, 23 September, Sunday

    Time Temperature Precipitation Wind Pressure Humidity
    00:00 +8°C° 0 mm 2 mps 731 mmHg 88%
    01:00 +9°C° 0 mm 2 mps 731 mmHg 86%
    02:00 +9°C° 0 mm 2 mps 731 mmHg 84%
    03:00 +9°C° 0 mm 2 mps 731 mmHg 85%
    04:00 +8°C° 0 mm 2 mps 731 mmHg 86%
    05:00 +8°C° 0 mm 2 mps 731 mmHg 87%
    06:00 +9°C° 0 mm 2 mps 731 mmHg 85%
    07:00 +9°C° 0 mm 2 mps 731 mmHg 84%
    08:00 +10°C° 0 mm 3 mps 731 mmHg 82%
    09:00 +12°C° 0 mm 3 mps 731 mmHg 74%
    10:00 +13°C° 0 mm 3 mps 731 mmHg 67%
    11:00 +15°C° 0 mm 4 mps 732 mmHg 59%
    12:00 +15°C° 0 mm 4 mps 731 mmHg 58%
    13:00 +15°C° 0 mm 4 mps 731 mmHg 58%
    14:00 +17°C° 0 mm 4 mps 731 mmHg 57%
    15:00 +15°C° 0.1 mm 4 mps 730 mmHg 60%
    16:00 +16°C° 0.1 mm 3 mps 730 mmHg 64%
    17:00 +14°C° 0.1 mm 3 mps 730 mmHg 67%
    18:00 +13°C° 0 mm 3 mps 730 mmHg 70%
    19:00 +12°C° 0 mm 3 mps 730 mmHg 72%
    20:00 +12°C° 0 mm 2 mps 730 mmHg 74%
    21:00 +11°C° 0 mm 3 mps 729 mmHg 75%
    22:00 +11°C° 0 mm 3 mps 729 mmHg 76%
    23:00 +11°C° 0 mm 3 mps 728 mmHg 77%

    24 September, Monday

    Time Temperature Precipitation Wind Pressure Humidity
    00:00 +11°C° 0 mm 4 mps 727 mmHg 75%
    01:00 +12°C° 0 mm 4 mps 726 mmHg 72%
    02:00 +12°C° 0 mm 5 mps 724 mmHg 70%
    03:00 +12°C° 0.1 mm 5 mps 723 mmHg 68%
    04:00 +13°C° 0.1 mm 6 mps 722 mmHg 66%
    05:00 +14°C° 0.1 mm 7 mps 721 mmHg 64%
    06:00 +14°C° 0.4 mm 7 mps 720 mmHg 68%
    07:00 +13°C° 0.4 mm 8 mps 719 mmHg 73%
    08:00 +15°C° 0.4 mm 8 mps 718 mmHg 77%
    09:00 +13°C° 1.3 mm 9 mps 718 mmHg 78%
    10:00 +13°C° 1.3 mm 10 mps 719 mmHg 79%
    11:00 +12°C° 1.3 mm 11 mps 720 mmHg 80%
    12:00 +11°C° 0.1 mm 10 mps 722 mmHg 79%
    13:00 +10°C° 0.1 mm 9 mps 723 mmHg 77%
    14:00 +9°C° 0.1 mm 8 mps 725 mmHg 76%
    15:00 +9°C° 0.1 mm 8 mps 726 mmHg 74%
    16:00 +9°C° 0.1 mm 7 mps 726 mmHg 72%
    17:00 +10°C° 0.1 mm 7 mps 727 mmHg 70%
    18:00 +9°C° 0 mm 6 mps 728 mmHg 72%
    19:00 +8°C° 0 mm 6 mps 729 mmHg 74%
    20:00 +7°C° 0 mm 6 mps 729 mmHg 76%
    21:00 +7°C° 0 mm 6 mps 730 mmHg 76%
    22:00 +6°C° 0 mm 5 mps 730 mmHg 75%
    23:00 +5°C° 0 mm 5 mps 731 mmHg 75%

    25 September, Tuesday

    Time Temperature Precipitation Wind Pressure Humidity
    00:00 +5°C° 0 mm 5 mps 731 mmHg 76%
    01:00 +5°C° 0 mm 5 mps 731 mmHg 77%
    02:00 +5°C° 0 mm 5 mps 731 mmHg 79%
    03:00 +3°C° 0 mm 5 mps 732 mmHg 80%
    04:00 +3°C° 0 mm 5 mps 732 mmHg 81%
    05:00 +3°C° 0 mm 5 mps 733 mmHg 83%
    06:00 +3°C° 0 mm 5 mps 733 mmHg 80%
    07:00 +3°C° 0 mm 6 mps 734 mmHg 77%
    08:00 +4°C° 0 mm 6 mps 735 mmHg 74%
    09:00 +5°C° 0.1 mm 6 mps 735 mmHg 69%
    10:00 +6°C° 0.1 mm 7 mps 735 mmHg 64%
    11:00 +8°C° 0.1 mm 7 mps 736 mmHg 59%
    12:00 +8°C° 0.3 mm 7 mps 736 mmHg 59%
    13:00 +9°C° 0.3 mm 7 mps 736 mmHg 58%
    14:00 +9°C° 0.3 mm 7 mps 736 mmHg 57%
    15:00 +8°C° 0.2 mm 6 mps 736 mmHg 59%
    16:00 +8°C° 0.2 mm 6 mps 737 mmHg 61%
    17:00 +8°C° 0.2 mm 5 mps 737 mmHg 62%
    18:00 +6°C° 0.1 mm 4 mps 737 mmHg 68%
    19:00 +5°C° 0.1 mm 4 mps 738 mmHg 74%
    20:00 +4°C° 0.1 mm 3 mps 739 mmHg 80%
    21:00 +3°C° 0 mm 3 mps 739 mmHg 81%
    22:00 +3°C° 0 mm 3 mps 739 mmHg 81%
    23:00 +2°C° 0 mm 3 mps 739 mmHg 81%

    26 September, Wednesday

    Time Temperature Precipitation Wind Pressure Humidity
    00:00 +2°C° 0 mm 3 mps 739 mmHg 81%
    01:00 +2°C° 0 mm 3 mps 739 mmHg 80%
    02:00 +2°C° 0 mm 3 mps 739 mmHg 80%
    03:00 +2°C° 0 mm 3 mps 739 mmHg 79%
    04:00 +2°C° 0 mm 3 mps 739 mmHg 79%
    05:00 +3°C° 0 mm 3 mps 739 mmHg 79%
    06:00 +4°C° 0 mm 3 mps 739 mmHg 76%
    07:00 +5°C° 0 mm 4 mps 739 mmHg 73%
    08:00 +6°C° 0 mm 4 mps 739 mmHg 70%
    09:00 +7°C° 0 mm 5 mps 739 mmHg 67%
    10:00 +8°C° 0 mm 5 mps 739 mmHg 63%
    11:00 +10°C° 0 mm 6 mps 739 mmHg 60%
    12:00 +10°C° 0 mm 6 mps 738 mmHg 58%
    13:00 +10°C° 0 mm 6 mps 738 mmHg 55%
    14:00 +11°C° 0 mm 6 mps 737 mmHg 53%
    15:00 +12°C° 0 mm 5 mps 737 mmHg 54%
    16:00 +11°C° 0 mm 4 mps 737 mmHg 55%
    17:00 +11°C° 0 mm 4 mps 737 mmHg 56%
    18:00 +10°C° 0 mm 3 mps 737 mmHg 60%
    19:00 +8°C° 0 mm 3 mps 737 mmHg 63%
    20:00 +7°C° 0 mm 3 mps 737 mmHg 66%
    21:00 +7°C° 0 mm 3 mps 737 mmHg 67%
    22:00 +5°C° 0 mm 3 mps 737 mmHg 68%
    23:00 +5°C° 0 mm 3 mps 737 mmHg 69%
    Show more